Theta_e
320 320 320 319 319 319 319 320 320 321 321 322 322 322 322 322 323 323 323 323 324 323 323 323 323 324 323 323 322 322 320 318 318 318 319 322 334 341 341 339 338 337 334 323 331 333 328 330 335 341 336 335 335 334 339 339 339 340 331 326 323 324 321 330 328 327 330 330 334 338 339 336 332 336 338 341 339 339 339 338 341 344 342 344 344 346 347 345
319 319 319 319 319 319 319 320 320 320 321 321 321 322 322 322 322 323 322 323 323 323 323 323 323 324 324 323 322 321 320 319 318 319 319 337 344 344 338 332 336 336 334 323 328 331 327 329 336 338 334 329 337 332 338 333 340 331 330 330 322 325 328 334 334 334 332 332 335 337 336 339 334 337 338 335 335 336 335 337 339 340 340 343 344 345 345 343
319 319 319 319 319 319 319 319 320 320 320 321 321 321 322 322 322 322 322 322 322 322 323 323 323 323 323 323 322 321 319 319 321 320 328 343 345 344 345 342 338 336 325 322 330 333 328 332 337 336 333 328 332 329 334 332 335 333 331 324 325 332 331 337 337 336 335 338 333 335 336 337 335 337 341 336 333 335 334 333 336 337 336 339 341 343 343 342
319 319 319 319 318 318 319 319 320 320 320 321 321 321 322 322 321 321 321 321 321 322 322 322 323 323 324 323 321 322 320 319 319 329 334 348 343 347 342 344 340 336 324 325 330 334 333 336 335 334 331 325 329 331 329 331 329 333 330 325 328 335 332 337 339 341 337 338 339 337 338 334 335 339 339 335 332 333 336 338 337 337 337 339 341 342 342 341
318 318 318 318 318 318 319 319 319 319 320 320 321 321 320 321 321 321 321 320 321 322 322 322 323 324 323 322 319 320 319 314 318 326 328 346 348 350 348 344 341 329 321 323 328 334 333 332 332 331 328 324 325 328 326 331 334 331 328 331 333 337 332 338 342 339 336 338 341 336 332 334 338 337 336 336 331 330 335 340 342 341 340 339 339 341 342 341
318 318 318 318 318 318 318 319 319 319 319 320 320 320 320 320 320 320 320 321 321 321 322 323 324 324 324 322 322 321 318 303 316 322 350 348 351 352 351 344 342 331 321 320 325 331 330 329 329 326 324 324 324 320 327 327 334 322 326 331 332 338 334 341 338 339 339 336 341 336 339 340 340 333 339 338 336 340 343 342 343 342 343 342 342 341 340 340
317 317 317 317 317 317 318 318 318 318 319 319 320 320 320 319 319 319 319 320 320 321 322 323 324 324 323 321 321 319 317 319 321 332 345 354 349 353 351 344 342 330 322 318 325 329 329 327 326 325 324 323 323 324 327 328 329 328 324 333 337 335 333 339 337 338 340 335 337 339 337 336 334 331 337 339 339 340 344 343 345 344 344 343 341 341 340 340
317 317 317 317 317 317 317 318 318 318 319 319 319 319 319 319 319 319 319 320 321 322 323 324 325 323 322 322 319 319 319 318 320 330 353 346 344 346 349 338 330 324 321 320 326 331 329 324 322 325 324 321 323 322 325 325 327 322 322 328 334 338 337 337 339 338 337 341 344 342 337 335 339 335 337 337 338 342 343 347 344 343 343 342 340 339 340 340
317 317 317 317 317 317 317 318 318 318 318 318 318 319 318 319 319 319 320 321 322 323 324 325 324 325 322 318 312 311 314 318 322 325 347 343 336 341 338 325 324 320 321 324 328 333 330 323 323 325 320 321 324 321 323 321 320 325 323 326 329 334 338 337 335 338 335 339 339 338 335 338 338 340 335 341 338 343 343 342 343 342 341 340 339 340 338 339
316 317 316 316 316 317 317 317 318 318 318 318 318 318 318 318 318 319 320 321 323 325 326 325 325 324 319 317 318 312 314 320 322 323 324 330 326 329 327 322 320 319 320 324 327 330 328 325 323 327 325 323 324 319 321 319 318 327 325 324 322 325 334 334 333 333 336 340 343 334 333 337 336 335 330 343 344 345 342 340 343 341 340 341 340 340 339 338
316 316 316 316 316 317 317 317 318 317 318 318 317 317 317 318 318 318 320 323 325 326 326 325 324 321 317 319 314 312 318 320 320 320 323 329 325 322 321 323 321 318 320 322 324 330 331 328 327 326 324 319 319 317 318 318 321 322 324 325 325 324 326 329 332 333 338 331 334 335 333 337 336 335 333 339 342 344 344 338 340 340 340 341 341 340 341 339
316 316 316 316 316 316 317 317 317 317 317 317 317 316 317 317 317 318 320 324 325 326 326 325 324 322 318 318 316 314 318 320 321 321 321 328 324 323 324 326 323 321 321 321 326 331 332 329 328 324 317 324 313 317 316 320 319 320 322 318 321 323 322 326 327 331 333 332 336 335 330 330 331 331 336 340 342 343 340 338 339 339 340 341 342 341 341 340
316 316 315 316 316 316 317 317 317 317 316 316 316 316 316 316 317 318 322 324 329 326 325 325 325 322 320 317 320 318 318 322 321 319 319 322 328 326 327 330 326 324 325 328 331 332 332 330 328 322 323 320 317 310 316 319 319 320 319 316 315 316 316 322 326 330 331 331 333 332 318 323 328 332 336 339 341 342 337 337 338 338 339 340 341 341 341 341
316 315 315 315 315 316 316 317 316 316 315 315 315 314 315 315 317 319 322 325 327 325 324 326 324 322 320 319 315 317 319 321 321 317 318 321 321 325 325 331 332 328 331 332 335 334 330 330 327 323 325 319 316 323 316 316 317 311 315 315 310 311 312 321 323 326 328 333 334 332 318 323 327 331 335 339 339 336 336 335 337 338 339 338 340 341 340 341
315 315 315 315 315 316 316 316 315 314 315 315 314 313 313 314 317 321 324 326 328 327 327 326 323 321 321 324 320 319 336 324 320 320 318 315 317 322 322 326 329 332 332 333 334 334 332 328 324 319 316 322 321 316 313 313 313 313 308 307 311 310 313 318 324 325 323 331 333 329 319 325 327 331 335 339 340 339 335 336 336 337 339 339 340 340 340 341
315 315 315 315 315 315 315 314 314 314 315 313 312 312 315 316 321 322 325 328 330 327 328 323 326 323 319 316 315 329 320 316 313 316 317 317 318 320 323 322 326 329 331 332 335 333 331 328 319 318 318 319 315 312 311 310 309 311 308 307 308 311 312 313 319 324 327 329 330 327 319 325 325 332 334 337 338 338 337 337 336 337 338 339 339 339 340 341
314 314 314 315 315 315 315 314 314 314 313 312 312 314 316 319 321 324 327 328 327 329 324 324 326 329 314 316 317 313 310 313 316 316 316 317 317 318 324 321 321 323 328 331 331 329 328 322 322 319 319 314 315 313 307 304 304 306 309 306 310 310 311 309 318 324 327 329 324 327 323 324 327 330 333 337 336 337 337 336 337 336 337 339 339 338 339 340
314 314 314 314 315 315 315 313 313 313 312 311 311 312 315 319 323 324 326 326 325 326 327 329 326 317 312 319 308 309 313 313 313 315 315 319 317 316 321 321 321 322 325 323 326 321 323 316 318 311 313 312 313 311 304 300 303 305 306 306 307 311 312 311 312 321 326 327 324 325 323 324 326 329 332 336 336 336 336 333 337 336 336 338 338 338 339 340
314 314 314 314 314 314 314 314 312 311 311 311 314 318 318 318 317 321 320 325 322 320 318 317 315 304 298 306 311 312 312 314 316 316 313 315 316 316 320 324 323 321 318 316 316 317 318 315 316 311 307 309 309 311 308 306 308 307 308 307 308 308 310 310 315 323 325 325 323 323 320 322 325 328 333 335 336 335 335 337 338 336 337 336 338 338 338 339
314 313 314 314 314 314 314 313 312 310 310 311 314 316 319 319 316 314 319 321 316 314 307 308 310 309 309 310 309 313 316 316 311 314 316 317 315 312 315 320 320 322 318 310 313 313 318 309 307 306 308 310 311 312 312 312 309 308 309 308 308 309 311 315 316 321 325 322 324 324 323 324 325 326 330 332 336 334 334 336 337 338 343 339 337 338 339 339
314 313 314 314 313 313 313 312 311 310 310 312 313 313 305 304 301 303 306 308 311 310 308 309 309 307 307 309 311 311 308 311 313 313 316 319 316 313 313 317 316 312 315 315 311 317 315 308 307 310 311 311 312 313 312 311 311 308 306 306 307 309 308 314 315 319 324 319 320 324 322 322 324 326 328 332 333 331 332 333 335 338 338 338 337 338 339 340
313 313 313 313 312 312 312 311 310 310 309 314 313 311 310 309 310 312 309 302 309 310 309 309 310 308 311 310 312 312 311 307 310 313 317 315 314 311 315 313 312 309 313 314 312 310 307 305 309 312 313 312 311 312 312 310 309 309 306 306 306 308 311 314 315 317 320 319 316 323 320 322 324 328 330 330 330 333 333 333 335 338 337 339 337 336 339 339
313 313 313 313 312 311 311 310 310 308 313 314 312 311 310 314 316 316 312 307 304 310 310 308 307 308 308 311 312 313 306 306 306 311 313 315 315 313 315 309 309 310 311 311 306 306 304 307 310 313 313 310 309 309 310 309 308 306 306 304 303 309 308 306 312 315 318 318 316 318 323 321 325 326 327 330 329 331 333 335 339 343 339 338 340 339 339 339
314 314 313 313 312 311 311 309 308 313 315 314 313 311 315 317 316 315 309 303 303 309 309 310 309 308 307 305 310 308 305 307 308 308 314 313 311 315 313 313 309 309 307 309 308 306 306 311 314 312 312 310 308 308 307 307 305 307 306 306 305 307 309 310 311 314 316 319 320 318 315 320 321 321 323 329 330 330 332 333 340 343 344 343 344 343 343 342
313 313 314 313 311 310 309 307 312 316 316 315 314 315 317 317 318 317 307 305 305 304 312 309 310 310 309 313 312 306 308 308 308 310 313 311 309 309 310 315 312 308 308 310 309 307 307 313 315 312 310 310 308 307 307 307 304 306 307 307 307 309 309 311 312 311 310 310 317 315 307 309 321 321 322 324 326 328 332 335 338 339 340 339 339 340 340 341
313 313 313 312 312 310 308 312 316 316 314 313 313 317 317 317 319 316 308 300 297 303 307 300 309 303 310 307 310 308 309 304 310 312 312 313 315 309 308 308 312 306 310 309 308 309 309 313 313 311 310 309 308 307 309 309 304 303 305 309 308 308 309 309 309 310 306 305 312 318 307 304 314 317 321 324 324 325 331 334 334 338 338 338 339 338 337 337
313 313 313 312 311 309 311 311 315 315 313 311 316 317 317 316 324 315 303 297 293 303 302 306 305 303 308 307 307 308 296 301 311 312 312 315 309 314 304 305 308 309 310 311 308 304 310 310 310 310 309 308 307 305 309 310 305 302 310 310 309 307 306 307 308 308 306 313 315 316 313 307 307 313 319 324 321 322 325 332 333 336 337 339 338 337 339 339
314 313 311 310 309 309 310 312 313 312 313 315 318 317 317 320 320 313 303 288 289 306 301 303 305 310 307 308 309 303 303 307 302 308 313 315 313 309 305 303 303 305 309 308 299 309 310 308 308 307 308 306 306 308 311 311 307 307 311 311 309 308 307 306 306 306 307 307 305 309 314 307 307 313 319 320 318 320 324 326 331 334 337 338 340 338 339 339
313 312 311 310 309 307 313 314 314 312 317 318 317 317 317 320 312 305 299 289 301 302 309 301 311 308 306 308 305 306 305 307 301 307 313 314 313 309 303 306 306 305 307 306 302 307 311 311 310 309 307 305 308 310 312 311 307 310 312 312 311 309 308 307 305 304 305 304 301 307 311 305 306 312 313 318 318 317 320 325 329 333 335 336 337 338 338 340
312 311 311 310 309 318 321 316 315 320 321 319 317 318 317 313 306 297 292 285 305 296 304 304 303 301 305 302 302 305 303 305 305 307 308 306 309 311 309 310 306 304 303 307 305 307 309 315 315 311 307 309 310 311 311 311 312 313 311 309 308 307 306 307 305 304 302 297 302 308 311 309 302 310 312 312 313 321 320 324 331 332 333 335 337 336 335 338
311 310 309 309 311 316 315 311 317 319 320 320 318 315 313 308 299 295 289 295 303 300 305 303 300 304 301 300 299 303 303 303 303 305 303 306 305 308 308 304 307 302 301 302 302 305 307 309 308 312 314 312 312 309 312 312 312 311 308 306 304 303 305 304 303 304 296 294 302 308 309 311 301 307 313 317 320 320 324 323 331 331 334 336 335 335 336 338
309 308 309 310 313 316 309 310 317 320 319 319 315 310 307 296 300 290 291 304 293 298 299 299 301 302 300 302 300 300 300 302 304 303 301 303 303 302 302 298 302 296 296 297 296 302 301 303 309 311 316 311 309 306 308 310 310 308 307 305 298 297 299 294 298 294 294 294 301 305 307 304 304 310 314 317 319 320 331 326 327 331 331 335 338 338 337 341
308 307 307 312 315 314 315 319 321 320 319 316 311 308 301 296 290 298 297 300 293 300 298 303 300 299 300 298 298 301 302 297 303 302 303 303 301 302 305 304 305 301 294 301 299 299 299 304 305 308 311 313 310 303 303 303 306 305 303 301 297 293 293 290 294 297 297 300 304 303 306 300 306 310 315 314 318 322 323 334 332 331 335 334 334 337 337 340
307 308 313 318 317 317 319 323 322 320 315 314 309 304 300 293 292 303 299 299 297 303 302 300 300 300 299 296 298 299 297 301 301 301 301 299 299 298 300 303 304 302 300 299 296 297 294 295 300 303 302 312 309 307 307 305 305 305 307 303 300 299 295 292 295 292 294 297 301 305 300 298 298 303 313 316 318 322 323 325 326 331 332 336 336 339 338 338
307 311 319 321 319 319 321 322 322 318 314 310 304 300 294 295 297 296 296 297 300 301 299 302 299 297 297 298 300 301 299 296 301 299 299 297 296 299 300 300 303 303 302 294 298 298 297 297 304 307 307 310 308 311 311 308 306 307 307 307 301 300 304 296 300 299 298 298 297 301 299 303 303 314 315 318 320 321 322 324 333 332 332 333 335 336 335 335
310 323 325 320 319 321 322 319 318 316 313 306 301 297 296 297 294 299 296 302 300 298 298 300 299 296 296 297 300 300 301 297 299 298 298 298 300 299 303 302 301 302 299 295 298 294 298 296 305 308 310 308 308 312 310 310 298 305 305 300 302 309 306 301 302 304 304 301 297 304 302 304 309 310 315 316 317 319 321 322 322 328 335 337 335 335 336 337
317 320 317 319 317 318 319 318 317 315 311 305 300 296 300 300 301 301 302 300 299 300 298 292 296 295 295 295 296 297 298 300 299 298 295 300 297 300 301 301 304 303 303 299 296 301 293 294 302 303 302 309 312 312 312 311 310 306 302 305 310 311 309 303 296 300 298 295 299 302 300 302 301 298 312 315 315 317 319 320 327 332 335 331 335 336 334 335
315 317 318 317 317 319 319 319 316 313 308 303 299 301 304 299 303 301 303 301 302 300 297 295 296 298 295 295 296 297 300 295 296 297 295 299 294 303 301 301 304 303 303 304 297 298 299 291 299 304 305 307 311 311 309 312 313 306 304 313 304 298 297 303 301 293 294 294 297 302 303 302 304 304 308 310 313 315 319 320 321 329 332 332 333 336 338 338
316 316 314 315 320 318 318 319 314 311 306 301 300 297 300 301 303 302 303 302 302 299 295 297 295 298 297 295 297 298 298 294 297 296 294 297 293 301 299 300 300 304 303 303 298 299 300 292 295 303 303 307 309 307 299 304 310 311 311 307 311 307 303 299 301 302 301 296 297 298 303 300 306 308 310 310 314 317 318 319 319 322 333 331 335 335 335 339
316 314 308 317 320 319 322 317 311 308 304 299 300 299 303 300 302 303 304 301 299 298 297 297 299 296 298 297 297 295 298 297 297 295 295 297 295 301 299 302 299 301 301 302 299 301 295 300 290 299 305 304 299 304 301 304 303 304 304 303 305 305 309 307 306 302 299 297 297 298 297 303 310 313 312 313 314 316 317 320 323 328 331 332 333 334 337 338
318 312 308 317 319 321 317 313 307 304 302 304 304 302 302 299 302 303 304 303 301 304 299 298 297 295 296 295 296 299 297 296 296 294 295 296 297 293 299 300 300 298 300 300 299 299 296 296 292 296 297 298 301 307 307 306 307 306 304 302 304 302 300 298 297 306 303 299 296 298 297 306 312 316 315 315 316 316 318 322 322 323 330 330 332 334 337 336
312 306 307 317 319 318 313 304 305 307 303 299 297 301 300 305 302 302 302 304 302 300 303 300 300 297 298 297 297 297 296 295 297 296 297 294 298 297 298 302 300 301 297 295 296 302 301 299 296 294 296 298 302 306 309 310 309 307 307 304 306 306 305 301 294 299 303 303 304 303 300 304 316 317 317 317 317 317 319 321 322 323 327 334 333 334 337 340
313 306 313 318 319 316 310 303 304 304 302 302 306 303 304 303 301 302 301 302 299 301 300 300 298 297 299 298 298 296 297 294 296 294 296 298 297 298 301 302 302 300 300 297 300 303 305 296 293 294 298 301 303 305 306 306 306 304 306 307 306 303 305 304 303 305 302 303 300 300 299 304 313 319 320 318 321 318 321 320 321 321 323 325 326 334 335 338
312 310 311 316 318 315 305 299 299 301 300 303 303 301 304 302 301 301 301 300 300 299 298 298 299 300 296 299 298 295 298 291 296 296 294 298 296 302 302 301 301 298 298 297 295 299 293 298 295 291 292 294 296 300 301 305 305 302 301 304 306 306 306 306 306 308 301 302 303 299 295 301 312 319 320 319 317 317 318 319 321 320 322 323 324 327 338 338
312 313 313 312 316 313 303 303 302 300 301 301 300 300 300 301 301 301 300 300 301 301 298 298 299 300 298 300 297 298 298 295 293 297 297 297 297 301 301 301 302 299 300 303 302 301 294 294 294 289 286 285 285 287 292 296 299 302 304 304 305 305 304 302 298 302 297 306 309 304 300 307 315 322 316 318 316 321 318 319 319 321 323 321 322 323 335 338
309 303 306 310 310 309 307 308 305 302 300 299 298 299 301 299 300 301 301 301 302 300 300 300 301 300 297 297 296 296 296 298 295 295 296 295 297 299 300 300 300 300 303 305 302 300 293 295 294 294 293 291 294 297 299 302 301 298 301 302 302 303 304 302 301 300 297 304 304 307 309 309 312 312 314 315 315 315 315 318 321 319 322 328 333 336 338 340
313 303 303 301 308 306 304 305 304 304 300 303 297 299 298 298 300 300 303 297 301 300 299 300 299 296 298 297 295 295 297 295 298 296 295 296 298 299 301 301 300 302 305 302 303 299 294 290 292 294 295 296 297 298 299 299 297 299 299 300 302 302 302 300 297 296 305 301 298 309 316 307 311 315 314 315 315 318 318 322 321 324 323 324 327 343 343 336
302 305 308 308 300 297 301 300 304 302 303 303 299 301 298 298 297 296 300 301 301 302 297 300 299 298 298 296 295 293 295 295 296 293 297 297 296 299 298 299 298 302 302 299 302 297 293 289 293 294 294 296 297 297 298 298 298 299 300 300 300 302 301 300 300 302 303 300 300 310 315 310 313 316 317 320 322 322 323 325 325 328 328 329 334 329 328 330
310 308 306 309 301 302 301 302 304 302 300 302 299 300 298 297 296 298 296 299 300 299 300 294 296 298 298 299 297 294 296 291 291 296 295 295 295 295 294 297 299 301 300 298 298 301 296 291 293 294 293 294 295 296 297 296 298 298 298 299 302 301 299 300 301 303 303 306 309 308 312 310 319 320 318 320 322 323 324 326 328 330 329 332 331 330 328 328
305 305 304 307 306 303 304 303 302 302 299 301 299 298 299 297 296 298 300 298 296 297 301 296 296 298 298 298 299 295 298 297 296 293 297 296 295 298 296 296 295 300 300 297 298 300 294 290 296 294 292 292 295 296 296 296 295 294 297 300 301 300 300 301 302 303 304 305 307 307 309 310 317 323 323 323 323 326 325 326 326 327 327 325 326 331 331 332
310 312 312 305 301 302 305 304 302 301 299 300 299 299 299 298 297 299 298 301 299 297 299 296 298 298 299 299 298 298 300 300 300 299 300 299 295 299 294 296 299 296 297 295 297 298 296 292 295 293 289 290 294 294 295 296 296 295 296 297 298 299 298 301 300 304 303 302 306 306 306 306 322 321 321 324 323 324 324 324 325 325 326 329 332 333 332 333
314 314 314 309 300 303 303 303 302 301 297 299 300 299 298 299 300 300 297 302 302 302 300 299 299 297 297 298 298 300 303 302 301 301 301 301 301 301 301 300 299 296 295 295 297 296 297 294 291 291 287 288 293 294 294 294 294 291 292 295 298 300 301 303 304 305 305 304 302 302 304 312 321 322 319 320 321 323 324 323 323 326 332 332 332 334 335 336
Wind_Speed
23 23 24 24 24 24 25 23 22 21 22 20 20 19 19 19 19 18 17 16 16 15 14 14 14 14 13 11 10 10 9 9 11 9 12 16 7 7 4 2 4 2 4 8 11 12 14 14 15 14 11 7 8 9 8 11 6 5 3 2 3 4 2 2 6 5 2 4 7 3 6 9 12 11 10 12 12 10 11 12 11 9 13 15 19 22 23 22
24 23 24 24 25 26 25 24 22 22 21 20 20 19 19 19 19 18 18 17 16 16 15 14 14 14 12 11 10 9 9 10 11 13 17 5 7 8 7 4 5 5 5 11 14 14 14 15 15 14 11 9 8 9 9 8 9 7 4 4 6 2 3 4 6 12 9 5 5 5 2 1 10 11 11 12 14 13 13 10 10 11 15 19 22 23 23 23
24 24 24 24 24 24 24 24 23 22 22 21 20 19 19 19 19 18 18 17 16 16 16 15 13 13 12 10 9 7 8 10 10 16 5 9 8 8 8 8 5 7 8 13 14 14 14 13 13 14 10 9 9 10 10 8 8 8 5 4 6 2 4 4 5 10 13 13 6 10 10 5 7 10 12 10 14 12 11 10 10 13 21 22 23 24 23 22
25 24 25 25 27 26 26 25 24 25 23 21 20 20 19 19 19 18 18 18 17 16 16 15 13 12 10 10 8 8 9 11 7 7 8 2 4 8 9 9 9 9 11 15 13 13 13 11 12 13 10 10 8 11 10 7 7 6 7 7 2 5 1 3 3 5 13 12 6 3 2 6 11 12 13 13 12 11 10 9 12 17 22 24 24 24 22 22
25 25 26 26 24 25 24 25 24 25 23 22 21 20 20 19 18 18 18 18 17 16 15 14 13 11 9 6 6 7 8 7 7 6 5 4 7 7 8 9 10 11 14 15 15 14 13 13 11 12 10 8 10 10 10 10 9 5 9 7 5 6 2 6 7 5 7 9 4 6 3 4 4 4 11 15 11 7 9 11 9 17 22 25 25 24 22 23
26 26 26 25 26 25 25 25 25 25 23 23 22 21 20 19 18 18 18 17 17 16 15 13 12 10 8 5 7 8 7 3 3 6 5 8 8 8 9 10 11 11 14 15 13 13 14 13 12 10 9 10 10 10 10 11 10 9 9 7 5 4 3 4 9 9 10 11 5 9 11 10 8 8 4 6 10 10 10 14 13 16 22 22 23 23 23 23
26 26 26 26 27 27 25 24 24 24 22 22 22 21 20 20 19 18 18 16 15 15 13 13 11 9 7 4 9 7 8 8 4 7 6 3 6 8 10 11 10 11 13 14 15 13 14 13 12 10 10 11 12 11 11 11 12 10 7 11 8 8 11 8 7 9 15 6 9 6 10 3 8 6 12 3 11 12 13 15 9 19 20 22 22 22 23 23
26 26 26 26 27 25 25 24 24 23 23 21 22 21 20 20 19 19 18 16 14 14 13 11 9 6 5 7 7 7 9 4 6 6 9 7 7 8 9 9 11 12 13 16 13 14 13 15 13 10 11 10 7 10 9 12 12 10 11 10 12 12 9 9 9 11 7 17 12 9 6 3 6 7 8 4 3 11 14 17 18 18 20 20 21 22 22 22
26 26 27 27 26 26 26 26 25 24 23 22 21 21 21 19 18 18 17 15 13 13 12 9 7 5 3 5 7 9 1 7 4 6 10 8 7 8 10 9 13 13 13 13 14 13 12 12 13 11 9 11 11 12 10 7 9 10 13 11 11 14 10 12 12 16 12 8 13 7 3 2 1 5 9 7 2 11 12 10 15 17 20 20 20 21 21 20
26 27 27 27 26 26 26 26 25 24 23 22 20 21 21 19 18 17 16 15 12 11 10 7 4 4 5 6 7 7 5 10 6 2 5 3 4 7 11 9 13 13 13 14 13 14 13 9 12 11 14 14 12 11 10 9 9 9 9 13 12 8 19 18 13 8 12 14 18 16 12 6 10 6 1 2 8 8 4 14 16 18 19 19 18 19 19 21
26 27 28 27 25 25 25 24 25 24 23 21 21 21 20 19 18 17 15 14 12 9 7 5 1 4 7 8 8 5 2 10 4 5 3 4 6 7 10 9 13 13 14 12 13 13 12 13 10 8 8 9 7 11 10 10 8 13 10 11 9 11 13 10 8 15 13 4 5 11 13 10 10 6 6 5 5 7 11 18 16 17 17 17 18 18 18 17
26 27 27 27 26 26 25 25 24 23 22 21 20 20 19 19 18 16 15 13 12 7 5 5 6 5 8 9 8 5 9 6 4 4 3 5 5 7 10 9 12 13 13 12 12 12 13 12 11 10 9 8 12 9 12 11 13 12 12 12 11 12 11 12 13 13 8 7 13 9 11 8 9 9 14 12 9 10 13 15 17 16 16 17 17 16 15 16
26 27 28 27 27 27 27 27 25 24 23 20 17 17 20 19 19 16 14 13 8 6 5 5 6 6 7 8 4 6 7 3 2 3 5 4 5 7 8 9 10 13 14 12 10 10 11 11 12 13 14 12 8 8 8 10 7 11 13 11 11 11 12 14 14 13 13 5 8 9 5 7 8 11 13 14 14 19 11 11 14 14 15 15 16 15 16 16
27 28 29 28 28 28 28 26 27 25 24 19 18 17 17 19 19 15 13 12 11 6 5 6 6 6 6 8 4 4 2 3 3 5 5 2 6 7 7 8 9 11 11 12 11 6 10 10 12 13 12 13 10 11 12 6 9 10 9 10 10 9 10 13 14 14 14 13 15 12 5 7 10 10 12 13 10 15 11 14 14 15 15 15 15 15 15 17
26 27 28 28 28 28 27 27 26 25 24 20 20 18 18 19 17 14 13 13 11 10 6 6 7 5 7 6 2 5 1 4 7 5 2 7 6 6 7 8 9 9 10 11 9 8 6 9 11 12 10 10 13 14 11 9 8 9 8 10 10 11 9 12 14 16 14 14 12 10 7 7 12 12 15 13 11 12 13 12 15 14 13 15 14 15 15 16
24 24 26 27 28 27 26 27 27 25 25 23 23 22 20 15 15 12 12 13 12 7 7 7 8 9 9 7 6 7 6 6 3 6 5 6 7 8 8 9 9 9 10 9 7 5 7 8 11 10 10 10 11 9 9 8 9 9 11 10 11 11 10 12 12 16 17 12 14 14 5 4 11 12 13 14 16 13 11 10 13 14 15 15 15 14 14 16
23 24 24 27 27 27 27 27 27 27 26 25 24 23 17 14 15 11 9 10 9 8 7 6 5 9 7 6 2 8 4 6 4 7 3 6 7 7 1 7 9 10 10 10 7 7 8 8 6 9 10 10 8 10 9 9 9 9 10 11 11 12 10 10 8 15 16 14 12 15 8 5 1 15 14 14 14 14 11 12 11 12 10 13 14 14 15 16
24 24 25 28 28 27 27 27 28 28 26 27 23 23 20 14 6 6 10 8 8 8 8 9 9 8 9 12 4 3 6 4 5 5 6 2 6 5 7 7 6 10 9 9 9 11 9 9 8 9 9 11 11 11 11 11 11 9 10 11 11 13 14 11 9 11 13 12 11 10 11 8 7 8 15 14 14 15 14 14 12 14 15 13 13 14 16 16
29 27 25 26 26 26 26 26 29 28 24 27 24 22 11 5 5 8 8 5 6 5 5 6 7 4 8 4 1 6 4 7 6 5 5 6 6 7 7 7 7 10 9 9 8 12 8 8 8 9 11 11 13 13 13 15 13 13 11 11 11 11 12 12 13 12 13 15 10 12 12 11 11 11 14 14 13 14 13 14 11 12 12 12 14 14 14 15
28 27 26 25 24 24 25 25 28 28 22 21 16 11 6 4 3 4 7 10 10 10 9 5 5 7 8 2 6 7 9 7 8 2 2 2 4 7 10 8 8 9 9 9 9 13 7 10 11 12 12 14 16 17 17 15 16 17 15 13 12 12 13 13 15 12 14 12 14 16 15 5 2 9 16 14 13 12 13 14 11 8 5 4 9 14 15 16
25 27 26 25 25 24 23 25 26 28 23 13 15 12 7 10 9 4 13 11 11 6 5 4 4 7 7 7 5 8 9 10 5 3 3 5 8 5 8 8 9 10 10 11 10 10 12 12 13 14 15 16 15 15 17 17 16 17 16 15 12 13 12 14 15 13 18 13 10 10 9 6 5 11 13 14 15 14 13 14 12 11 9 6 3 7 15 15
26 25 25 24 26 25 25 26 26 24 26 11 10 8 6 9 6 5 7 8 5 6 6 8 2 8 3 3 2 5 7 8 6 3 2 6 6 9 9 9 9 9 10 11 11 10 11 14 13 15 15 15 16 15 15 17 16 16 13 11 11 10 11 12 17 15 11 13 8 18 12 9 11 11 7 11 15 14 15 15 14 13 12 6 4 4 9 14
26 25 24 25 25 25 24 26 24 23 11 9 4 5 7 8 6 6 7 9 13 11 8 6 10 5 2 1 2 2 9 8 2 7 7 4 5 10 4 8 8 10 10 13 12 11 11 11 15 14 14 15 16 16 16 15 15 13 12 12 11 11 11 8 14 18 13 11 10 14 16 14 14 9 12 15 14 13 14 15 15 12 12 9 9 7 7 12
25 25 25 24 26 28 25 25 27 13 8 14 5 5 6 6 7 7 9 7 8 6 8 4 5 1 1 5 5 8 7 4 7 9 1 5 7 1 8 9 10 10 11 13 15 14 12 8 12 16 15 16 16 16 16 12 11 13 16 13 12 13 13 14 7 13 14 14 11 11 12 11 10 12 13 13 13 15 15 15 14 11 10 8 4 4 6 16
26 27 27 27 26 29 27 25 9 8 6 10 2 5 6 6 5 6 8 7 8 6 5 4 5 4 4 2 6 7 2 5 8 5 2 5 7 6 8 7 7 10 11 13 14 15 16 13 10 14 16 17 16 15 16 13 12 11 16 17 15 13 15 14 16 14 11 13 12 10 8 9 17 21 18 10 12 13 10 13 14 13 11 7 3 6 6 12
28 27 28 25 25 26 29 7 4 11 12 6 8 8 7 7 6 6 6 5 5 8 6 7 3 3 3 4 4 4 5 4 4 4 1 4 7 9 7 7 5 10 10 12 12 9 11 13 14 13 14 16 18 15 14 14 13 11 9 14 18 19 15 15 17 13 10 10 11 14 12 9 10 17 17 15 17 16 14 12 15 14 12 12 11 9 10 14
26 27 25 24 23 20 12 2 12 16 11 6 7 7 7 6 5 7 5 5 7 8 6 8 7 5 4 6 7 5 7 6 2 1 6 6 7 3 9 7 6 8 11 8 7 10 10 14 14 14 15 14 15 14 13 15 12 11 10 10 14 17 18 17 15 14 11 12 12 15 13 10 9 12 18 23 20 20 20 17 14 14 15 13 11 13 13 17
25 24 23 24 25 12 7 11 13 10 9 9 9 8 7 5 3 4 5 5 2 7 6 6 5 3 5 2 6 8 8 7 10 6 2 3 6 6 6 9 11 11 8 8 11 4 10 12 15 15 15 11 11 13 12 16 13 9 12 14 12 13 17 18 16 13 12 12 10 11 13 11 9 8 14 18 20 20 19 19 18 18 17 15 14 15 17 20
23 23 22 24 26 28 10 8 9 11 9 9 9 8 7 6 8 5 4 7 5 3 4 4 3 5 5 4 8 3 6 2 7 8 5 2 7 7 7 7 8 12 14 13 11 11 9 9 11 16 14 12 12 12 12 13 14 13 14 14 11 7 8 9 12 14 12 11 12 12 14 11 10 12 9 16 17 20 22 23 24 22 21 19 16 18 19 16
23 20 21 21 20 11 6 9 10 12 9 8 9 10 10 7 6 6 5 5 6 5 4 5 5 6 3 7 8 9 5 4 3 5 5 7 5 9 9 9 9 8 10 10 14 13 17 10 9 10 14 13 11 13 14 16 17 9 12 14 13 9 7 8 9 9 10 14 13 15 14 12 11 10 12 12 15 16 18 17 18 19 20 20 21 20 17 15
24 22 19 17 8 7 10 9 2 7 8 8 10 12 9 6 6 5 7 5 3 7 4 5 4 5 5 5 3 9 8 3 5 2 7 7 9 9 7 10 9 9 9 10 12 14 14 17 14 7 10 12 13 11 14 13 8 11 9 10 10 10 5 7 8 8 11 12 13 16 16 15 15 8 9 12 12 17 22 22 22 24 22 22 19 20 20 20
25 23 21 12 11 9 7 8 12 9 8 10 10 9 6 6 7 7 3 6 8 5 3 6 3 4 2 2 8 2 3 3 2 5 8 5 5 8 10 9 6 8 9 8 10 10 13 14 12 13 9 17 13 11 11 11 13 13 13 11 12 9 6 9 8 11 12 12 9 14 16 15 16 11 13 10 11 13 19 21 25 25 26 24 23 21 17 18
27 24 23 15 11 7 12 11 8 8 8 8 8 6 6 5 6 8 7 6 4 7 6 6 6 1 5 7 8 1 4 8 9 6 4 5 8 9 7 5 7 6 8 7 9 6 9 13 17 16 11 12 15 11 10 13 13 15 15 13 12 11 10 8 9 8 9 13 15 13 14 16 11 12 19 21 13 14 16 24 24 28 25 24 22 19 19 18
28 26 11 8 7 10 9 8 6 8 9 7 7 6 6 6 5 4 5 5 7 4 3 1 3 5 7 7 6 5 6 2 3 5 1 7 7 7 8 3 7 8 9 10 10 8 9 10 14 15 12 10 16 14 10 11 11 13 11 13 11 10 9 10 8 10 11 9 11 19 15 10 14 8 12 17 17 10 9 15 22 26 25 25 24 23 22 21
31 23 12 10 10 12 13 10 8 6 6 6 6 6 6 4 3 7 7 7 6 5 3 5 7 4 6 7 3 4 2 6 3 1 6 7 7 5 8 7 8 7 5 8 4 8 14 13 7 18 15 14 15 17 15 14 14 12 12 11 13 13 9 11 7 10 10 10 12 11 12 9 10 4 13 12 14 16 12 12 18 21 22 25 23 21 20 19
21 7 7 7 10 7 9 6 4 5 5 6 6 6 6 6 3 7 6 9 6 7 9 10 7 7 5 4 8 4 10 7 3 2 5 8 6 4 10 6 7 9 9 6 9 7 8 9 11 12 17 19 18 15 16 15 12 9 12 15 13 9 12 11 14 17 15 11 11 7 10 12 9 12 11 15 16 17 15 13 17 22 22 23 19 19 19 17
8 11 7 6 4 5 3 3 4 4 5 6 6 5 6 7 9 7 5 10 7 8 8 9 1 4 5 2 11 11 8 7 6 4 6 3 6 6 3 9 6 5 10 8 8 7 10 13 22 19 18 11 19 17 16 17 17 12 13 12 11 15 13 11 10 8 11 11 8 10 13 10 12 11 11 13 17 18 18 14 19 26 27 22 20 19 19 20
9 8 11 8 3 3 1 3 3 5 6 6 7 8 6 2 9 10 7 9 5 1 6 6 1 4 6 5 6 1 6 3 7 2 5 4 2 13 9 2 8 8 7 9 7 8 11 12 12 14 15 13 12 17 16 18 20 19 14 7 13 12 15 11 7 12 11 11 8 9 11 13 11 9 10 16 15 14 16 17 15 21 26 27 22 23 22 20
9 7 6 4 3 4 2 1 5 6 6 6 4 9 8 9 8 10 10 8 4 7 8 8 9 4 4 6 11 11 3 6 7 3 4 3 3 10 8 9 6 9 8 9 8 9 9 11 12 16 16 13 12 10 16 15 19 21 19 18 12 11 12 12 11 8 8 10 8 11 12 9 10 10 13 14 16 14 15 18 17 16 28 21 18 21 20 18
6 5 1 5 4 3 3 2 4 6 7 5 4 4 4 4 8 9 9 9 7 7 6 6 8 7 5 4 9 10 4 9 8 4 7 6 4 9 10 11 10 9 11 9 9 9 11 8 13 13 19 16 11 8 13 15 13 15 17 15 12 11 9 11 11 13 10 9 9 8 11 8 6 8 11 14 15 18 16 14 14 18 23 22 21 21 17 18
7 7 2 4 6 4 1 8 7 5 6 7 9 2 8 8 5 5 7 6 6 1 9 7 6 5 7 7 5 7 8 8 6 5 5 10 7 2 12 12 7 12 11 9 8 8 9 9 13 12 13 12 11 9 13 15 16 15 14 15 13 12 11 13 14 12 14 11 6 8 10 7 11 8 8 9 11 13 14 7 11 15 20 20 22 21 21 21
4 4 6 4 3 3 5 7 5 4 3 7 9 9 7 9 10 10 4 5 3 5 3 5 5 6 7 0 9 8 3 9 8 7 3 8 7 10 5 6 11 10 9 7 8 8 7 8 10 11 11 12 15 15 13 14 17 17 12 16 17 15 13 10 9 11 12 13 12 11 9 7 6 7 13 9 10 14 14 14 12 14 21 21 19 24 23 20
6 5 5 6 3 8 6 2 2 3 3 7 4 9 6 6 3 6 6 6 3 6 5 7 11 7 5 5 5 8 10 10 8 5 9 8 2 9 12 13 9 10 8 7 10 6 11 6 9 13 14 18 22 20 19 18 19 19 16 15 14 18 15 12 11 11 11 12 12 10 10 7 4 13 8 11 11 9 10 16 15 15 13 11 17 21 24 22
9 5 5 7 6 3 6 4 2 5 5 2 6 9 4 9 4 10 10 12 4 5 10 10 1 5 8 1 7 6 7 5 2 6 8 6 8 10 11 14 15 7 7 8 7 12 7 4 8 10 9 10 13 14 14 13 12 8 7 10 14 19 21 14 15 13 14 14 15 11 10 11 2 4 6 3 5 11 13 8 12 15 12 13 15 13 20 21
8 6 7 4 2 2 7 8 4 3 3 4 2 5 7 6 8 6 9 12 7 8 5 2 7 8 9 7 5 5 5 5 8 8 8 10 10 12 9 10 7 7 7 6 6 8 8 10 9 9 11 11 11 12 8 8 8 10 8 12 16 17 15 10 10 11 9 2 6 4 10 11 4 4 2 4 9 2 2 10 14 12 13 15 13 14 11 24
6 4 4 1 8 4 8 7 9 6 4 1 2 2 2 5 8 9 8 5 7 6 7 7 6 3 6 5 7 5 7 5 6 8 5 6 8 6 7 11 6 8 10 10 7 7 8 9 10 10 11 12 9 12 15 12 11 11 12 13 15 17 15 15 14 14 11 7 11 7 5 8 6 5 8 2 3 5 2 8 10 7 9 12 11 10 2 13
7 5 7 7 9 5 3 7 5 5 6 4 2 4 6 7 8 7 4 4 5 5 6 5 8 9 7 6 5 7 7 9 7 8 8 10 10 9 12 14 11 12 6 10 10 8 7 10 13 15 17 17 19 17 15 15 15 15 16 16 16 15 15 16 12 13 15 12 13 6 5 7 12 18 2 10 10 2 3 3 4 10 5 10 10 5 8 16
2 5 4 4 5 5 6 7 6 5 4 3 7 6 4 1 5 3 4 6 4 3 9 7 2 0 6 5 6 7 7 9 8 8 7 7 7 9 9 3 12 7 4 8 9 8 8 10 13 14 17 17 19 18 17 15 16 16 17 17 19 16 17 16 16 18 18 10 7 5 9 6 10 10 13 15 10 11 10 11 12 10 14 12 7 6 10 8
7 4 6 7 2 7 8 6 6 5 8 10 4 4 3 5 3 3 4 8 6 4 2 6 5 5 7 6 5 7 8 8 4 2 1 2 5 7 9 10 5 14 11 9 9 9 9 11 13 14 17 17 18 18 16 17 15 15 18 21 19 14 18 19 20 19 21 12 10 14 5 8 10 8 7 8 11 12 11 9 8 11 13 14 15 17 15 12
7 7 5 6 5 4 2 2 3 3 7 2 2 7 5 2 3 7 4 4 5 3 3 6 6 7 8 8 6 8 7 7 9 10 3 5 8 6 8 9 7 8 6 9 6 4 5 9 12 12 12 15 16 16 16 16 15 18 20 20 16 17 18 19 19 17 19 16 15 17 11 7 6 7 7 8 11 14 10 13 14 13 14 15 12 9 13 10
4 3 3 7 4 6 7 2 2 3 3 3 3 3 3 4 5 4 6 6 5 7 5 6 6 8 8 8 7 8 8 9 9 9 8 8 9 3 5 4 10 6 1 6 7 6 5 9 10 11 12 12 12 14 14 15 18 19 18 18 18 18 17 15 14 11 12 14 13 12 8 8 5 4 8 12 13 12 14 13 10 11 14 13 14 12 10 10
4 2 5 6 4 2 5 2 4 6 6 7 7 5 4 5 6 6 6 4 7 4 5 6 7 7 7 8 9 8 8 9 10 10 10 10 10 12 11 12 11 11 8 8 7 8 6 6 7 8 11 12 11 13 14 15 14 15 17 18 19 18 16 16 15 16 16 15 13 11 10 7 6 5 5 7 3 8 8 8 11 10 9 9 9 10 11 12
Wind_Direction
346 346 347 346 346 346 345 342 339 336 336 334 330 327 324 323 319 318 318 316 312 310 309 302 298 296 294 296 295 297 301 283 288 248 234 245 275 99 32 59 96 164 234 231 228 201 188 196 202 208 210 207 217 234 226 233 221 189 253 286 275 243 277 280 311 280 20 201 168 178 174 111 127 148 124 133 134 146 156 165 159 170 141 139 137 139 142 143
345 345 345 345 344 345 344 341 337 336 336 333 331 326 322 320 318 317 316 315 313 309 305 306 299 295 298 294 297 298 288 281 272 264 246 235 175 153 156 163 159 227 228 224 215 203 193 196 199 202 209 203 211 228 212 222 199 209 205 251 268 287 13 355 319 305 291 187 200 173 89 233 145 145 148 144 151 160 163 136 145 148 132 132 140 143 144 148
346 345 345 343 343 344 343 340 337 335 336 333 327 324 320 317 317 315 314 313 310 308 304 303 303 298 297 295 293 289 282 286 262 257 254 111 147 169 167 167 184 226 217 213 214 208 203 193 199 202 204 228 202 230 203 224 196 202 209 227 266 91 298 328 313 294 300 281 202 170 156 162 160 154 155 149 150 152 144 147 162 154 139 143 145 148 148 152
346 345 343 343 344 343 343 340 336 336 335 331 326 322 320 318 316 315 313 311 307 305 304 300 300 301 299 293 290 288 271 282 273 100 97 157 163 206 194 175 194 218 223 232 226 219 215 209 202 207 203 228 225 225 218 205 199 155 214 232 213 139 6 120 251 288 290 270 251 151 20 161 193 171 142 170 152 150 151 169 164 156 145 146 148 151 153 153
346 345 343 342 342 342 340 338 336 336 333 329 325 323 319 317 316 314 311 307 306 301 303 300 296 299 298 302 297 276 283 273 91 90 89 177 220 221 210 189 192 217 212 222 242 240 219 221 204 204 228 220 244 222 229 220 209 209 207 250 195 154 144 241 207 223 253 273 134 211 184 255 229 164 162 179 153 152 173 154 195 153 148 149 152 153 158 155
345 344 342 342 342 341 340 338 336 335 331 326 325 321 318 317 315 312 308 304 302 302 297 297 298 296 294 294 276 258 274 47 48 74 139 188 191 193 193 191 201 222 210 222 232 236 218 221 219 205 211 243 236 237 200 235 206 239 226 200 132 193 193 229 216 189 180 222 258 206 171 232 166 142 75 255 138 154 148 158 171 142 150 151 151 155 161 159
344 343 343 342 341 341 339 335 334 332 329 324 323 318 317 318 316 311 309 307 301 299 297 296 297 291 283 301 253 257 252 283 71 108 127 144 156 181 186 192 197 216 214 217 227 236 209 221 217 217 220 228 244 252 252 211 213 246 256 119 170 187 232 216 240 238 163 197 245 259 165 251 90 119 166 100 123 155 144 147 176 157 153 156 155 159 163 162
344 343 342 341 340 338 336 335 332 330 326 325 321 318 316 317 317 312 311 309 300 295 299 296 292 292 298 262 268 236 229 256 60 94 134 150 157 155 172 193 192 199 208 213 217 226 206 222 212 221 231 233 218 224 246 257 230 219 243 210 160 191 203 228 231 258 211 163 212 243 148 199 126 187 108 134 139 145 150 157 167 150 155 158 158 160 164 163
343 343 342 341 340 338 337 335 331 328 327 323 321 318 315 317 314 312 311 307 302 299 297 297 282 283 247 290 272 290 242 42 4 36 150 163 110 140 172 170 192 195 205 213 224 232 218 215 229 222 226 224 250 275 258 248 242 229 252 262 189 176 181 215 203 231 221 96 156 180 127 87 2 265 107 303 187 149 146 167 153 159 155 159 163 161 164 166
342 342 341 340 338 338 336 331 329 327 325 322 321 316 316 315 315 314 310 306 303 302 297 291 266 237 235 266 272 266 61 302 350 20 5 340 130 156 190 180 180 200 205 211 220 233 222 215 229 208 251 273 280 258 269 245 263 267 232 217 247 243 161 219 206 237 266 166 174 158 148 132 175 215 29 266 283 139 176 181 167 160 159 161 166 164 165 170
341 340 339 338 336 335 333 329 328 325 323 322 320 316 313 315 311 312 308 304 303 303 294 269 202 231 262 254 279 297 46 269 336 314 19 350 137 185 196 196 182 201 213 210 226 230 229 240 217 255 238 254 254 262 267 268 272 257 267 288 250 225 245 211 197 225 193 164 145 137 135 158 145 154 158 155 182 303 214 161 167 157 161 162 167 165 166 172
340 340 339 337 336 334 331 329 326 324 321 320 318 315 314 311 308 305 303 305 297 294 271 253 194 249 272 273 266 326 341 8 291 316 262 208 203 199 209 213 185 208 210 219 220 228 235 234 245 238 247 178 239 280 269 269 245 265 267 261 248 252 245 238 226 197 223 164 162 141 133 148 176 137 152 175 151 193 231 150 162 165 159 163 168 165 167 175
340 340 339 338 336 334 330 328 325 323 319 317 314 314 313 307 304 301 297 299 283 244 249 252 229 251 282 274 203 32 347 325 16 257 269 225 231 181 223 224 193 214 220 236 229 224 236 241 246 254 247 269 293 243 41 316 275 240 245 253 265 264 248 226 215 222 184 204 185 161 182 170 179 150 158 164 162 185 177 156 160 166 166 160 166 170 168 175
339 339 339 337 335 331 329 327 325 322 318 319 318 315 310 304 298 294 287 279 291 271 258 244 257 255 266 278 86 33 294 248 147 230 234 53 274 193 216 234 214 209 235 252 266 236 224 241 256 259 272 261 253 268 274 258 244 262 252 233 251 252 247 223 205 203 207 177 171 184 234 165 166 165 164 163 172 150 182 170 162 167 166 165 169 165 176 174
337 337 337 335 333 330 327 326 324 320 317 322 319 314 307 300 293 288 287 282 261 260 260 238 238 253 227 243 160 168 257 301 229 216 99 261 223 197 210 214 227 230 228 243 254 271 272 238 239 246 248 250 269 279 284 269 259 231 243 233 229 239 249 250 196 194 206 167 177 190 231 157 173 174 161 166 164 166 188 168 173 167 166 166 172 163 177 177
335 334 334 333 331 329 326 326 324 320 319 321 319 311 303 282 275 278 279 278 300 308 247 250 221 238 289 277 110 111 218 246 37 360 296 273 250 252 191 210 220 221 232 230 245 273 257 261 228 236 246 250 253 254 257 264 239 229 230 238 229 221 237 259 216 185 195 164 174 189 203 176 164 169 165 163 168 184 178 169 169 166 172 169 174 167 178 173
334 334 333 331 332 329 327 325 323 319 321 320 319 306 292 273 271 262 266 271 265 229 239 259 272 200 266 64 218 212 7 352 5 283 185 244 275 261 222 201 210 216 215 232 223 240 244 237 227 241 248 253 235 231 245 241 244 221 214 237 241 236 215 241 232 177 188 171 174 189 229 206 127 159 169 168 175 173 177 170 171 166 180 181 176 174 176 173
335 333 333 331 330 329 326 323 322 319 322 319 314 297 289 286 278 293 252 231 239 241 239 250 268 289 230 262 260 331 350 318 351 333 258 236 252 260 251 210 205 221 193 222 214 228 213 224 207 234 215 225 237 226 223 228 222 220 207 219 233 245 252 236 229 157 185 151 168 180 226 203 182 174 161 169 171 173 182 178 180 180 183 177 181 173 179 174
335 334 331 330 328 327 325 322 320 318 326 317 302 282 266 232 238 236 267 203 210 190 216 178 213 265 9 39 341 273 340 25 278 244 173 244 188 255 240 242 215 201 198 218 186 217 195 233 210 229 228 211 217 225 223 232 242 248 226 219 230 237 227 234 238 165 194 160 159 195 213 211 189 150 162 169 181 183 182 186 178 177 188 183 188 178 179 179
332 331 330 328 326 325 323 321 318 316 331 328 329 319 250 241 203 186 212 228 243 285 319 315 279 316 255 120 340 351 261 222 258 214 286 208 234 210 236 217 201 212 215 211 185 202 196 216 215 214 223 222 218 225 237 241 254 269 275 257 235 234 245 241 243 181 180 196 181 194 213 243 196 184 176 175 177 187 184 183 179 183 139 185 202 182 181 179
330 330 329 326 325 324 322 320 315 315 320 312 303 298 16 4 344 23 341 302 269 287 296 306 320 306 324 333 329 330 329 177 313 67 17 90 243 221 197 207 202 208 216 222 226 173 221 226 225 226 224 232 232 224 238 252 256 259 269 275 267 235 236 240 247 211 177 200 175 201 176 181 236 261 185 170 178 183 194 182 179 179 181 187 251 238 185 179
331 330 328 327 323 325 322 318 314 312 312 285 280 300 26 20 331 331 311 301 276 211 221 246 276 253 135 322 328 304 277 297 191 165 180 240 192 236 142 231 205 224 203 218 231 200 210 229 230 231 230 232 243 240 228 242 252 257 260 267 274 277 268 240 245 248 191 181 191 161 174 170 209 222 129 180 186 182 191 194 185 177 174 166 196 283 244 186
330 329 328 325 323 321 324 312 313 309 303 288 262 3 22 333 340 332 296 289 277 254 232 217 223 218 260 45 250 226 275 274 256 132 105 254 213 251 188 209 226 231 223 208 224 218 220 224 235 236 234 231 234 241 245 234 239 252 248 249 249 258 264 226 231 258 220 201 194 194 178 178 184 214 206 213 198 192 194 193 177 166 164 168 184 167 312 225
330 328 326 327 323 321 321 316 305 290 245 254 296 27 5 323 333 335 302 272 303 198 225 179 289 329 321 301 80 279 285 18 269 93 103 250 257 45 249 234 245 225 238 216 221 240 231 233 217 228 237 237 235 232 239 241 239 228 248 252 247 248 254 278 255 222 244 193 205 208 223 166 175 184 210 213 201 202 199 187 156 152 147 136 130 123 175 264
330 330 328 326 326 320 322 318 299 247 240 246 148 27 356 341 318 353 308 276 221 227 135 119 272 196 16 268 214 253 275 271 269 293 352 303 294 276 238 244 259 249 236 237 229 235 251 239 230 213 227 235 236 235 228 237 241 239 229 241 255 257 263 265 273 279 236 214 181 214 245 223 170 180 190 190 210 190 183 174 158 155 143 130 148 201 187 261
330 328 329 324 324 328 312 296 320 345 311 322 358 3 348 330 12 317 284 273 251 140 175 174 219 135 319 192 214 275 309 260 108 43 340 332 341 287 336 266 232 252 237 245 246 245 243 238 239 241 215 227 234 235 233 227 246 246 232 223 242 259 274 273 277 274 261 240 188 185 228 238 211 189 172 187 193 197 183 177 174 153 150 160 181 194 193 225
328 328 325 324 321 338 326 343 342 303 293 59 350 3 327 336 18 284 264 212 245 137 184 109 192 91 278 85 269 298 255 87 325 213 218 137 294 57 276 278 218 240 283 290 244 238 226 242 238 240 245 221 227 229 225 233 234 241 265 241 219 243 251 262 272 277 281 272 229 210 203 240 237 211 188 182 191 195 181 165 176 169 169 175 184 191 208 217
325 325 323 322 316 324 270 299 302 305 4 348 355 333 337 347 320 272 254 274 134 170 146 159 29 141 258 127 278 281 328 302 254 153 308 101 250 202 240 281 287 287 238 225 259 252 227 221 237 241 231 249 234 228 221 230 241 242 238 255 256 221 230 243 257 264 271 288 253 239 210 210 229 249 192 185 186 193 170 177 177 178 175 177 188 203 202 210
322 323 323 321 319 300 257 229 281 298 333 344 326 331 326 320 274 280 282 268 110 197 348 120 345 211 235 228 243 226 292 304 281 129 205 232 224 298 256 245 283 285 283 276 260 259 238 241 230 233 247 224 237 250 232 227 235 234 258 275 275 292 304 274 246 248 259 267 266 244 223 236 220 203 220 181 184 191 186 177 173 171 179 179 191 197 198 203
320 320 320 324 320 282 213 218 254 269 303 337 327 306 303 286 254 232 201 252 133 161 209 92 220 123 219 266 209 172 266 194 243 325 262 276 157 198 246 292 283 284 284 265 264 275 285 274 262 228 232 247 226 228 245 229 235 250 231 251 262 251 226 239 257 260 253 249 245 255 251 249 256 221 194 213 192 187 184 176 171 171 174 184 187 192 185 194
318 317 317 322 292 318 326 264 145 330 327 323 314 305 282 247 253 268 240 62 193 80 207 147 86 202 251 282 266 141 232 253 275 302 278 206 226 209 244 230 218 259 259 264 262 258 261 271 274 247 244 249 250 241 235 252 236 233 237 232 245 238 213 255 259 240 249 246 235 239 248 245 251 233 246 211 195 193 162 177 166 169 177 183 189 188 186 189
316 314 311 308 265 310 285 299 336 329 329 312 310 297 274 245 207 234 257 105 255 104 250 106 118 339 46 268 281 99 356 267 99 303 295 274 259 211 199 252 151 249 239 228 242 229 241 249 256 253 223 246 227 232 238 228 218 221 232 231 225 225 204 221 215 233 232 241 228 234 240 250 244 259 262 244 194 203 165 174 170 170 178 181 183 187 184 182
316 312 308 279 245 243 249 266 303 311 304 301 299 278 259 259 241 221 249 205 77 343 89 312 46 292 14 303 261 133 82 268 107 272 294 298 289 288 344 292 4 309 300 319 309 250 231 225 234 244 249 202 256 218 214 226 213 218 215 217 218 223 219 224 217 237 244 237 235 241 231 244 259 234 244 263 257 209 196 168 172 175 177 180 185 186 184 184
312 311 310 281 249 237 260 276 275 282 300 292 267 264 243 256 263 347 324 64 86 122 138 32 357 286 247 268 35 32 283 245 353 316 9 295 271 268 237 166 354 303 276 285 281 297 280 212 214 223 228 207 209 245 228 235 212 217 220 214 223 226 225 221 226 222 228 246 223 214 237 232 226 220 231 241 252 262 209 188 170 175 179 173 181 182 186 184
310 301 268 258 244 246 250 253 261 294 290 270 252 260 257 258 302 355 50 36 38 327 50 73 277 287 270 225 31 33 350 320 128 260 271 244 245 210 349 79 45 351 310 280 266 283 277 282 288 198 219 224 220 203 242 245 247 206 212 223 230 223 222 253 233 230 232 230 233 212 224 223 239 228 224 233 227 236 244 174 153 166 174 166 174 181 182 187
303 291 228 243 245 228 218 233 279 277 266 259 263 242 250 11 42 11 36 325 42 355 357 295 255 268 280 232 142 162 84 287 297 305 287 286 273 261 74 51 29 13 357 318 349 309 315 279 281 292 204 216 234 206 200 238 240 197 199 216 223 226 238 245 261 275 285 258 243 227 222 214 238 251 223 216 217 215 227 216 163 158 154 163 172 175 183 182
324 315 270 241 265 10 306 257 260 253 245 259 275 275 332 71 4 18 9 343 2 332 311 296 10 272 261 173 155 147 126 236 237 264 272 218 222 235 148 92 54 21 21 347 313 301 307 303 307 308 306 261 235 228 205 208 248 266 218 212 220 235 250 236 251 250 245 260 252 222 232 221 202 224 206 219 216 211 207 228 162 169 162 165 170 178 182 181
315 303 302 291 353 348 10 281 238 227 245 265 268 286 274 272 34 27 358 335 325 329 295 273 119 309 295 295 286 320 144 263 69 321 308 274 346 2 36 354 85 46 358 5 320 330 332 305 291 286 293 279 271 240 215 209 225 244 256 177 208 194 215 232 260 240 248 237 253 242 232 246 212 206 194 210 219 212 197 211 206 165 157 171 172 173 178 185
277 281 270 95 334 26 342 279 240 245 254 255 299 266 48 39 44 27 8 325 17 309 282 354 327 136 319 296 337 270 4 293 15 290 261 149 261 37 35 350 331 19 3 353 319 329 313 299 296 290 278 287 263 238 222 203 208 240 250 262 253 247 219 216 219 260 257 265 241 241 245 232 220 228 195 209 204 216 211 201 213 154 156 163 165 175 176 177
256 257 144 351 30 329 91 283 272 257 256 257 323 38 318 99 52 52 7 351 16 305 18 324 12 321 219 13 341 351 80 275 266 305 330 352 355 63 40 37 3 348 3 342 324 308 296 289 287 281 291 312 272 226 237 220 211 205 241 243 239 253 279 242 212 224 233 246 258 263 228 238 245 222 200 204 200 204 222 202 186 150 162 163 174 170 171 180
300 284 81 350 32 344 268 252 256 268 248 256 224 229 66 42 349 89 41 38 305 21 348 324 322 308 348 339 279 262 295 5 5 334 294 296 316 109 29 26 16 0 331 329 275 267 262 261 263 283 279 257 276 248 257 241 221 211 216 241 235 233 229 222 227 208 224 234 247 260 260 234 206 229 244 208 174 197 208 222 195 168 173 172 173 175 177 184
292 296 45 32 45 246 284 287 269 228 45 41 38 27 48 9 308 59 328 145 270 38 152 289 221 290 310 130 328 350 32 306 312 312 301 292 21 48 68 5 31 337 332 320 312 7 359 313 291 272 268 273 284 304 290 283 267 261 233 224 232 240 230 233 240 218 218 226 237 253 279 267 331 256 199 189 197 188 197 200 206 202 184 178 178 179 180 181
259 67 80 29 358 289 282 283 42 266 6 34 247 55 24 251 337 10 249 111 252 152 232 249 23 354 55 351 14 331 360 337 333 278 293 267 52 50 16 334 42 337 325 322 268 29 345 282 281 268 283 286 286 288 296 299 303 268 254 273 253 228 223 231 242 240 233 210 219 224 244 272 47 358 166 184 202 177 191 190 205 213 218 211 197 182 176 178
340 324 86 51 304 272 248 331 25 47 24 7 355 68 39 17 20 338 9 38 330 12 1 346 97 81 335 36 303 302 332 280 235 287 282 318 286 6 350 357 22 353 322 40 322 21 313 238 259 279 281 277 266 270 276 280 280 273 296 291 281 263 242 240 256 253 245 228 214 209 227 239 91 34 57 259 214 187 158 189 208 203 209 212 226 217 173 175
307 304 279 127 205 2 29 356 15 73 64 95 307 128 142 132 17 345 2 12 17 347 26 8 350 344 311 19 325 320 278 261 302 287 326 328 318 343 343 310 354 316 301 31 354 340 297 299 304 257 239 234 229 230 243 249 279 291 305 312 303 295 289 290 274 255 255 300 338 267 219 235 230 113 170 294 195 299 94 188 186 225 184 198 217 223 175 174
286 20 7 25 333 91 72 350 3 19 98 68 133 55 325 79 129 76 354 11 31 315 316 329 305 167 220 299 300 295 293 310 299 314 329 281 287 297 321 307 320 288 319 5 327 308 287 288 268 271 269 265 286 345 311 297 295 288 288 282 311 317 323 338 318 277 250 246 254 227 294 281 196 199 166 68 327 38 289 6 17 240 176 112 57 31 73 152
299 34 338 23 306 49 72 57 69 9 46 359 356 318 24 13 8 92 22 311 16 49 273 360 11 341 3 344 323 312 324 311 310 298 301 338 341 332 338 328 299 275 332 297 283 276 265 263 260 262 262 267 276 281 306 308 291 293 294 295 295 288 317 316 303 296 321 288 237 223 237 264 44 10 325 182 183 191 313 133 44 12 298 53 65 56 102 138
19 47 36 44 315 10 353 59 14 56 61 348 40 329 12 1 36 358 126 123 267 35 331 125 218 201 318 332 335 290 316 314 295 286 326 295 315 315 289 307 290 271 226 269 260 236 260 266 262 259 262 269 276 278 276 280 279 278 285 283 274 287 296 289 287 291 287 264 256 220 247 239 74 91 35 40 53 29 30 344 82 38 21 26 39 70 114 87
7 31 48 336 300 46 26 22 20 29 48 351 58 358 20 5 54 32 9 327 359 6 73 318 338 335 321 337 330 310 305 286 283 110 349 332 267 278 273 278 274 306 278 272 274 285 269 248 261 266 271 269 266 268 275 281 273 279 280 275 259 292 296 295 296 292 287 262 220 243 248 266 120 91 44 17 4 12 7 357 54 38 38 21 27 35 51 95
32 349 37 357 51 31 70 197 27 320 74 20 320 46 319 34 348 344 337 0 334 335 14 305 333 320 321 315 317 291 296 286 302 303 221 254 276 261 298 294 301 248 298 294 285 246 282 291 288 269 273 267 271 278 280 273 268 271 268 261 269 281 276 278 279 282 292 263 230 245 237 228 92 62 74 6 11 10 6 52 29 19 6 11 2 34 49 43
31 13 349 311 26 34 319 334 315 320 85 104 353 83 335 33 4 348 318 310 314 338 348 314 323 320 307 311 305 287 287 296 297 293 296 281 280 248 224 249 274 285 257 304 289 279 260 269 292 293 274 271 270 270 265 261 257 255 257 262 265 263 264 267 268 275 286 277 247 257 261 239 94 39 58 42 16 14 21 19 25 353 1 9 13 21 36 37
15 213 265 298 88 272 285 64 26 299 66 52 20 35 347 21 347 5 318 9 326 277 310 336 326 309 292 296 301 304 317 308 305 304 305 303 289 289 277 280 270 269 269 246 253 270 262 268 267 274 271 268 267 265 266 264 264 257 251 251 250 256 262 269 279 279 277 303 276 255 242 254 107 65 93 81 46 20 17 9 353 9 14 13 22 21 19 17